Regional Weather Roundup
Issued by NWS

Home | Current Version | Previous Version | Text Only | Print | Product List | Glossary Off
Versions: 1 2 3 4 5 6 7 8 9 10 11 12 13 14 15 16 17 18 19 20 21 22 23 24 25 26 27 28 29 30 31 32 33 34 35 36 37 38 39 40 41 42 43 44 45 46 47 48 49 50

000
ASUS43 KDTX 122001
RWRMI
MICHIGAN HOURLY REGIONAL WEATHER ROUNDUP
NATIONAL WEATHER SERVICE DETROIT/PONTIAC MI
300 PM EST FRI FEB 12 2016

NOTE: "FAIR" INDICATES FEW OR NO CLOUDS BELOW 12,000 FEET WITH NO
SIGNIFICANT WEATHER AND/OR OBSTRUCTION TO VISIBILITY.

MIZ047>049-052>055-059>063-066>070-074>076-081>083-122100-
SOUTHEAST LOWER MICHIGAN

CITY           SKY/WX    TMP DP  RH WIND       PRES   REMARKS
ADRIAN         HVY SNOW  21  16  81 W17G30    29.96S VSB 1/4 WCI   7
ALMA           CLOUDY    20   7  56 NW16G28   29.97S WCI   6
ANN ARBOR      LGT SNOW  20  15  81 NW16G24   29.94S VSB 3/4 WCI   6
BAD AXE        PTSUNNY   21   6  52 W14G24    29.90S WCI   8
DETROIT CITY   LGT SNOW  23  16  74 NW9G22    29.92F WCI  13
DETROIT        SNOW      21  18  86 W17G24    29.94F VSB 1/2 WCI   7
FLINT          FLURRIES  21  10  62 W23G35    29.93F WCI   5
GROSSE ILE     LGT SNOW  25  18  74 SW12      29.91F WCI  14
HILLSDALE      LGT SNOW  19  12  74 W20G31    29.95S WCI   3
HOWELL         FLURRIES  20  14  76 NW12G18   29.93S WCI   8

CITY           SKY/WX    TMP DP  RH WIND       PRES   REMARKS
JACKSON        CLOUDY    20   9  62 NW23G30   29.95S WCI   3
LAMBERTVILLE   FLURRIES  24  16  73 W15G21    29.96F WCI  11
LANSING        FLURRIES  20   8  60 W20G30    29.97S WCI   4
LAPEER         PTSUNNY   20   8  60 W7G16     29.91S WCI  11
MASON          MOSUNNY   21   9  61 W16G24    29.95S WCI   7
MONROE         LGT SNOW  25  18  74 SW15G21   29.93F WCI  12
MT. CLEMENS    MOSUNNY   23  18  80 W8        29.89F WCI  14
PONTIAC        LGT SNOW  19  14  81 NW17G33   29.90S VSB 3/4 WCI   4
PORT HOPE        N/A     20   6  55 NW16G28   29.88S WCI   6
PORT HURON     LGT SNOW  21  14  73 NW14G21   29.91F WCI   8
TRI CITIES     LGT SNOW  20  10  65 NW21G30   29.95S VSB 1   WCI   4
MIDLAND        PTSUNNY   20   1  43 W17G28    29.94F WCI   5
TROY           LGT SNOW  24  16  70 NW15G23   29.93F WCI  12
SAGINAW HB     PTSUNNY   23  12  63 NW16      29.94S WCI  10
$$
MIZ043>046-050>051-056>058-064>065-071>073-077>080-122100-
SOUTHWEST LOWER MICHIGAN

CITY           SKY/WX    TMP DP  RH WIND       PRES   REMARKS
BATTLE CREEK   LGT SNOW  18  12  77 NW20G26   30.00S VSB 1   WCI   2
BENTON HARBOR  LGT SNOW  21  11  65 NW13G28   30.09S WCI   9
BIG RAPIDS     SNOW      16  11  82 NW16G22   29.97S VSB 1/4 WCI   0
COLDWATER      PTSUNNY   21  13  72 NW15G25   30.00R HAZE    WCI   7
FREMONT        LGT SNOW  16  10  79 NW21G26   30.03R VSB 3/4 WCI  -2
HOLLAND        LGT SNOW  20   9  62 NW14G25   30.05S WCI   7
GRAND RAPIDS   LGT SNOW  19   9  65 NW17G24   30.01S WCI   4
IONIA          LGT SNOW  19  11  74 NW16G25   29.98R WCI   4
KALAMAZOO      LGT SNOW  19  11  70 NW21G32   30.02S WCI   3
LUDINGTON      LGT SNOW  16  10  77 N14G28    30.06S VSB 1   WCI   1
MARSHALL       LGT SNOW  19  13  74 W14G28    29.98S VSB 3/4 WCI   6
MOUNT PLEASANT FLURRIES  19   7  59 NW14G21   29.96S WCI   6
MUSKEGON       LGT SNOW  19   8  62 NW15G30   30.06R WCI   5
SOUTH HAVEN    LGT SNOW  20  13  73 NW13G25   30.07S WCI   7
$$
MIZ016>042-122100-
NORTHERN LOWER MICHIGAN

CITY           SKY/WX    TMP DP  RH WIND       PRES   REMARKS
ALPENA         MIX PCPN  17   4  56 NW18G26   29.92R WCI   1
BEAVER ISLAND  PTSUNNY   11  -3  53 NW21G30   30.06R HAZE    WCI  -8
BELLAIRE         N/A     13   9  83 N10G17    30.02R WCI   0
CADILLAC       LGT SNOW  15   4  63 NW20G25   29.93R WCI  -3
CHARLEVOIX     CLOUDY    13   1  57 NW21G36   30.05R WCI  -5
FRANKFORT      LGT SNOW  15   9  75 NW15G24   30.05R VSB 1   WCI   0
GAYLORD        MIX PCPN  11  -1  58 NW12G23   29.91R WCI  -3
GRAYLING       SNOW      13   7  76 NW20G29   29.92R VSB 1/2 WCI  -5
HARBOR SPRINGS LGT SNOW  10   3  72 N12G25    30.00R VSB 3/4 WCI  -4
HOUGHTON LAKE  LGT SNOW  16   6  65 NW22G29   29.91S WCI  -2
MANISTEE       CLOUDY    16   9  73 NW14G22   30.04R VSB 1/2 WCI   1
OSCODA         CLOUDY    18   8  62 NW17G25   29.89S HAZE    WCI   3
PELLSTON       CLOUDY    10   1  67 NW26G36   30.02R BLWGSNOWWCI -11
ROGERS CITY    LGT SNOW  13   1  61 NW20G30   29.96R WCI  -5
TRAVERSE CITY  HVY SNOW  14   9  80 NW25G32   30.02R VSB 1/4 WCI  -5
$$
MIZ007>008-015-122100-
EASTERN UPPER MICHIGAN

CITY           SKY/WX    TMP DP  RH WIND       PRES   REMARKS
KINROSS        CLOUDY     7   1  78 NW22G31   29.98S VSB 1/2 WCI -14
MACKINAC ISLAN CLOUDY     9  -3  57 N15G28    30.00R WCI  -7
NEWBERRY       LGT SNOW   4  -1  80 NW8G21    30.04R VSB 3/4 WCI  -9
S. S. MARIE    LGT SNOW   4  -6  63 NW21G30   30.00R VSB 1   WCI -17
$$
MIZ004>006-011>014-085-122100-
CENTRAL UPPER MICHIGAN

CITY           SKY/WX    TMP DP  RH WIND       PRES   REMARKS
MANISTIQUE     LGT SNOW   6  -3  66 NW21G33   30.10R VSB 1   WCI -14
ESCANABA       CLOUDY     7  -6  56 N18G25    30.15R WCI -12
MENOMINEE      PTSUNNY   14  -6  41 N15G26    30.13R WCI  -1
SAWYER-GWINN   CLOUDY     0  -8  71 N22G29    30.11R HAZE    WCI -23
$$
MIZ001>003-009>011-084-122100-
WESTERN UPPER MICHIGAN

CITY           SKY/WX    TMP DP  RH WIND       PRES   REMARKS
IRON MOUNTAIN  BLWGSNOW   4  -9  55 NW31G41   30.13R VSB 1/2 WCI -21
HOUGHTON       SNOW      -3 -10  72 NW22      30.20R VSB 1/2 WCI -27
COPPER HARBOR    N/A      3  -2  79 NE28G37   30.21S WCI -21
IRONWOOD       CLOUDY     0  -6  78 NW17      30.26R VSB 1/2 WCI -21
$$

ABBREVIATIONS USED IN REMARKS
   TC - TEMPERATURE IN CELSIUS
  WCI - WIND CHILL INDEX
   HX - HEAT INDEX
  VSB - VISIBILITY




USA.gov is the U.S. government's official web portal to all federal, state and local government web resources and services.